Regional Weather Roundup
Issued by NWS

Home | Current Version | Previous Version | Graphics & Text | Print | Product List | Glossary On
Versions: 1 2 3 4 5 6 7 8 9 10 11 12 13 14 15 16 17 18 19 20 21 22 23 24 25 26 27 28 29 30 31 32 33 34 35 36 37 38 39 40 41 42 43 44 45 46 47 48 49 50
000
ASUS43 KMKX 301411
RWRWI

WISCONSIN REGIONAL WEATHER ROUNDUP
NATIONAL WEATHER SERVICE MILWAUKEE/SULLIVAN WI
900 AM CDT THU MAR 30 2017

NOTE: "FAIR" INDICATES FEW OR NO CLOUDS BELOW 12,000 FEET WITH NO
SIGNIFICANT WEATHER AND/OR OBSTRUCTIONS TO VISIBILITY.

WIZ001-002-006>008-014>016-023>028-301500-
NORTHWEST WISCONSIN

CITY           SKY/WX    TMP DP  RH WIND       PRES   REMARKS
SUPERIOR ARPT  CLOUDY    35  33  92 E13G18    30.04F WCI  26
ASHLAND        CLOUDY    35  32  88 N5        30.04S WCI  31
HAYWARD        CLOUDY    40  28  62 E7        29.99F
SIREN          CLOUDY    37  28  70 E8        29.97F WCI  31
CUMBERLAND     CLOUDY    37  30  75 E10       29.96F WCI  30
RICE LAKE      CLOUDY    38  32  78 E13       29.98F WCI  30
CHETEK         CLOUDY    37  32  82 NE5       29.96F WCI  33
LADYSMITH      CLOUDY    37  32  81 E8        29.99F WCI  31
EAU CLAIRE     CLOUDY    37  34  89 E14       29.93F WCI  28
MENOMONIE      CLOUDY    38  34  87 NE10      29.94F WCI  31
NEW RICHMOND   CLOUDY    38  32  79 E13       29.94F WCI  30
OSCEOLA        CLOUDY    40  32  73 NE9G16    29.97F WCI  34
$$

WIZ003>005-009-010-017-018-301500-
NORTH CENTRAL WISCONSIN

CITY           SKY/WX    TMP DP  RH WIND       PRES   REMARKS
MANITOWISH WTR CLOUDY    34  28  79 E6        30.01S WCI  29
ARBOR VITAE    CLOUDY    37  31  81 E5        29.99F WCI  33
WOODRUFF       CLOUDY    37  31  81 E5        29.99F WCI  33
RHINELANDER    FLURRIES  35  29  78 E12       30.00S WCI  27
EAGLE RIVER    CLOUDY    33  24  70 E6        30.01S WCI  27
LAND O LAKES   CLOUDY    33  25  72 E3        30.03S
PHILLIPS       CLOUDY    35  30  83 E5        29.98F WCI  31
TOMAHAWK       LGT SNOW  33  30  86 E5        29.99F WCI  29
MEDFORD        CLOUDY    33  31  92 E12       29.94F FOG     WCI  25
MERRILL        CLOUDY    34  32  91 E13       29.98F WCI  25
$$

WIZ029-030-035-036-043>047-301500-
CENTRAL WISCONSIN

CITY           SKY/WX    TMP DP  RH WIND       PRES   REMARKS
WAUSAU         CLOUDY    34  31  88 E13G22    29.96F WCI  25
MOSINEE        CLOUDY    34  34 100 NE17G24   29.97F WCI  23
MARSHFIELD     MIX PCPN  34  33  96 E17       29.92F FOG     WCI  23
STEVENS POINT  LGT SNOW  32  32 100 NE15      29.96F WCI  22
WAUPACA        LGT RAIN  36  34  92 NE9       29.96F WCI  29
WAUTOMA        LGT RAIN  35  33  92 NE18      29.92F WCI  24
WISC RAPIDS    CLOUDY    35  35 100 E10G23    29.94F WCI  27
CAMP DOUGLAS   LGT RAIN  36  36 100 E15       29.88F WCI  26
$$

WIZ011>013-019>022-031-037>040-048>050-301500-
NORTHEAST WISCONSIN

CITY           SKY/WX    TMP DP  RH WIND       PRES   REMARKS
ANTIGO         CLOUDY    31  29  93 E10G20    30.00F FOG     WCI  22
SHAWANO        LGT SNOW  35  32  91 NE12G20   30.02F WCI  26
OCONTO         CLOUDY    32  31  98 NE9       30.04F WCI  24
STURGEON BAY   LGT SNOW  34  30  86 NE8       30.04F FOG     WCI  27
GREEN BAY      LGT SNOW  34  34 100 NE14      30.00F FOG     WCI  25
MANITOWOC      LGT RAIN  37  35  92 NE9       29.98F WCI  30
APPLETON       LGT SNOW  34  34 100 NE14      29.95F WCI  24
CLINTONVILLE   LGT SNOW  32  32 100 E12       30.00F WCI  23
OSHKOSH        LGT SNOW  35  32  88 NE16      29.93F FOG     WCI  25
$$

WIZ032>034-041-042-053>061-301500-
SOUTHWEST WISCONSIN

CITY           SKY/WX    TMP DP  RH WIND       PRES   REMARKS
LA CROSSE      LGT RAIN  39  36  89 E9G22     29.87F WCI  33
SPARTA         LGT RAIN  36  35  96 E15G21    29.89F WCI  27
VIROQUA        CLOUDY    36  36  99 E17G26    29.82F WCI  26
BOSCOBEL       LGT RAIN  40  38  93 E9G17     29.81F FOG     WCI  34
PRAIRIE DU CHI CLOUDY    39  38  97 NE10G20   29.78F WCI  32
PLATTEVILLE    CLOUDY    39  39 100 NE18G24   29.74F WCI  29
$$

WIZ056-057-062-063-064-067-068-301500-
SOUTH CENTRAL WISCONSIN

CITY           SKY/WX    TMP DP  RH WIND       PRES   REMARKS
REEDSBURG      DRIZZLE   35  35 100 E10G17    29.87F WCI  27
BARABOO/DELLS  LGT RAIN  36  34  93 E12G21    29.87S WCI  27
LONE ROCK      LGT RAIN  38  35  89 E15       29.84F FOG     WCI  29
MINERAL POINT  LGT RAIN  37  37 100 NE18G28   29.77F WCI  27
MADISON        LGT RAIN  37  35  92 E16       29.84F WCI  28
MIDDLETON      CLOUDY    39  39  99 E15       29.84F WCI  30
WATERTOWN      CLOUDY    37  37 100 E20G30    29.84F FOG     WCI  26
MONROE         RAIN      37  36  93 NE16G22   29.77F WCI  28
JANESVILLE     LGT RAIN  39  39 100 E21G26    29.78F WCI  29
$$

WIZ051-052-058>065-066-070>072-301500-
SOUTHEAST WISCONSIN

CITY           SKY/WX    TMP DP  RH WIND       PRES   REMARKS
MILWAUKEE      LGT RAIN  38  35  89 NE14      29.87F FOG     WCI  30
WAUKESHA       CLOUDY    36  34  93 E17G29    29.87F WCI  25
MILWAUKEE/TIMM RAIN      36  34  93 NE12G20   29.89F WCI  27
RACINE         RAIN      38  36  92 E13       29.86F FOG     WCI  30
KENOSHA        LGT RAIN  39  37  92 E17       29.81F FOG     WCI  30
FOND DU LAC    RAIN      37  32  82 E16G22    29.92F WCI  28
SHEBOYGAN      RAIN      36  33  89 E20       29.94F WCI  25
WEST BEND      LGT RAIN  34  34 100 E17G23    29.89F WCI  23
JUNEAU         LGT RAIN  35  34  96 NE17      29.87F WCI  24
$$

LSZ147-162-301500-
LAKE SUPERIOR

STATION/POSITION TIME  TEMP    WIND        PRES    WAVE
                       AIR SEA DIR/SP/G            HT/PER
                 (UTC) (F)     (DEG/KT/KT) (MB)    (FT/S)
DEVILS ISLAND    1400   35      80/ 12/ 13 1018.4F
PORT WING        1330   36      30/  2/  4 1017.6F
SAXON HARBOR     1330   34        CALM     1017.3S
$$

LMZ867-665-643>646-301500-
LAKE MICHIGAN

STATION/POSITION TIME  TEMP    WIND        PRES    WAVE
                       AIR SEA DIR/SP/G            HT/PER
                 (UTC) (F)     (DEG/KT/KT) (MB)    (FT/S)
CHAMBERS ISLAND  1340   33      30/  6/  9 1017.9S
NORTHPORT PIER   1340   34      80/ 10/ 13 1018.3S
SISTER BAY       1236   36     110/  8/ 14   N/A
KEWAUNEE LAKESHO 1348   35      60/ 11/ 15 1015.9F
SHEBOYGAN LAKESH 1400   36      60/ 22/ 25 1013.9F
PORT WASHINGTON  1340   37      70/ 15/ 19 1014.2F
MILWAUKEE LAKESH 1350   37      60/ 14/ 17   N/A
KENOSHA   LAKESH 1400   38      70/ 13/ 14 1010.2
$$

TC  - TEMPERATURE IN CELSIUS
VSB - VISIBILITY IN STATUTE MILES
WCI - WIND CHILL INDEX
HX  - HEAT INDEX




USA.gov is the U.S. government's official web portal to all federal, state and local government web resources and services.